Location: Barrio Las Umbrías
(40.4173°N, 4.8685°W)
Time: 21:49:40
(UTC+00:00)

Cosmos 1943 - Visible Passes

Search period start: 30 January 2023 00:00
Search period end: 09 February 2023 00:00
Orbit: 833 x 850 km, 71.0° (Epoch: 30 January)

Date Brightness Start Highest point End Pass type
(mag) Time Alt. Az. Time Alt. Az. Time Alt. Az.
06 Feb 5.6 06:46:37 10° N 06:50:13 17° NE 06:53:47 10° E visible
07 Feb 5.6 06:31:33 10° N 06:35:00 16° NE 06:38:25 10° E visible
08 Feb 5.7 06:16:30 10° NNE 06:19:47 15° NE 06:23:01 10° E visible
